ROMMA est une association bénévole à but non lucratif. Votre soutien est indispensable : ADHERER à ROMMA ou FAIRE un DON

Saint-Laurent-du-Pont - (38, Isère)

Chartreuse (410 m)   Longitude: 05° 43' 24" E   Latitude: 45° 23' 14" N Station partenaire n°156
 

Détail journalier du     <<     >>

Température Precipitation Humidité Pression Vent Dir Rafale Dir. rafale
Heure (°C) (mm) (%) (hPa) (km/h) (km/h)
01:00 8.109710201SE5O
02:00 7.809710202O3O
03:00 7.409710202E5SSE
04:00 7.3098102003SSO
05:00 7.0098102003N
06:00 6.409810202O5O
07:00 5.609710202SSE6OSO
08:00 4.809810202NNE5SO
09:00 4.309810211NNE5SSO
10:00 6.0099102103S
11:00 8.909810212N6O
12:00 12.208210212NE6ENE
13:00 14.007210202ENE6ENE
14:00 15.906910192SO8SSO
15:00 17.106410192ENE5E
16:00 17.607510182E6SE
17:00 16.108110172ESE6ESE
18:00 13.108510173ESE6E
19:00 10.809210183ESE6SE
20:00 9.809510193ESE6ESE
21:00 8.909510192ESE6SSE
22:00 8.209610192ENE5ENE
23:00 7.909710191NE5NE
minuit 7.7097101903ENE

Graphique du 16-10-2019

 

Serveur OMMA